Location: Unspecified
(0.0000°N, 0.0000°E)
Time: 18:04:39
(UTC+00:00)

SRMSAT - Pass Details

Date: 05 June 2020
Orbit: 848 x 866 km, 20.0° (Epoch: 06 July)

Event Time Altitude Azimuth Distance (km) Brightness Sun altitude
Rises 20:11:25 0° 310° (NW) 3,387 ? -30.3°
Reaches altitude 10° 20:14:26 10° 324° (NW) 2,453 ? -31.0°
Enters shadow 20:18:46 24° 11° (N) 1,661 ? -32.0°
